This is the latest recevied weather packets stored in our database for station/object K7FLA. If no packets are shown the sender has not sent any weather packets the latest 10 day(s).
| Time | Temp. | Humidity | Pressure | Rain* | Wind** | Luminosity | Snow |
|---|---|---|---|---|---|---|---|
| 1777299446 | 8.89° C | 80% | 1095.2 hPa | 0 mm | - | 46 W/m² | - |
| 1777299143 | 8.89° C | 80% | 1095.2 hPa | 0 mm | - | 38 W/m² | - |
| 1777298841 | 8.89° C | 81% | 1095.1 hPa | 0 mm | - | 37 W/m² | - |
| 1777298537 | 8.89° C | 81% | 1094.9 hPa | 0 mm | - | 34 W/m² | - |
| 1777298234 | 8.89° C | 81% | 1094.9 hPa | 0 mm | - | 24 W/m² | - |
| 1777297929 | 8.89° C | 81% | 1094.9 hPa | 0 mm | - | 19 W/m² | - |
| 1777297626 | 8.89° C | 81% | 1094.8 hPa | 0 mm | - | 15 W/m² | - |
| 1777297323 | 8.33° C | 82% | 1094.9 hPa | 0 mm | - | 15 W/m² | - |
| 1777297020 | 8.33° C | 82% | 1094.5 hPa | 0 mm | - | 13 W/m² | - |
| 1777296716 | 8.33° C | 82% | 1094.5 hPa | 0 mm | - | 11 W/m² | - |
| 1777296407 | 8.33° C | 83% | 1094.5 hPa | 0 mm | - | 10 W/m² | - |
| 1777296103 | 8.33° C | 82% | 1094.5 hPa | 0 mm | - | 8 W/m² | - |
| 1777295800 | 8.33° C | 82% | 1094.5 hPa | 0 mm | - | 5 W/m² | - |
| 1777295498 | 8.33° C | 82% | 1094.3 hPa | 0 mm | - | 3 W/m² | - |
| 1777295195 | 8.33° C | 82% | 1094.2 hPa | 0 mm | - | 2 W/m² | - |
| 1777294892 | 8.33° C | 81% | 1094.3 hPa | 0 mm | - | 1 W/m² | - |
| 1777294587 | 8.33° C | 81% | 1094.5 hPa | 0 mm | - | 1 W/m² | - |
| 1777294283 | 8.33° C | 81% | 1094.3 hPa | 0 mm | - | 0 W/m² | - |
| 1777293980 | 8.33° C | 81% | 1094.6 hPa | 0 mm | - | 0 W/m² | - |
| 1777293676 | 7.78° C | 82% | 1094.5 hPa | 0 mm | - | 0 W/m² | - |
| 1777293371 | 7.78° C | 82% | 1094.2 hPa | 0 mm | - | 0 W/m² | - |
| 1777293067 | 7.78° C | 83% | 1094 hPa | 0 mm | - | 0 W/m² | - |
| 1777292766 | 7.78° C | 82% | 1093.9 hPa | 0 mm | - | 0 W/m² | - |
| 1777292462 | 7.78° C | 81% | 1094.3 hPa | 0 mm | - | 0 W/m² | - |
| 1777292160 | 7.78° C | 81% | 1094.2 hPa | 0 mm | - | 0 W/m² | - |
* Rain latest hour (hover to see other rain measurements)
** Current wind speed in m/s (hover to see current wind gust speed)